Location: Newark
(32.9533°N, 113.4900°W)
Time: 21:35:52
(UTC+00:00)

Envisat - Visible Passes

Search period start: 08 December 2019 00:00
Search period end: 18 December 2019 00:00
Orbit: 764 x 766 km, 98.1° (Epoch: 08 December)

Date Brightness Start Highest point End Pass type
(mag) Time Alt. Az. Time Alt. Az. Time Alt. Az.
08 Dec 4.1 02:06:38 10° S 02:11:29 45° W 02:16:20 10° NNW visible
09 Dec 2.9 01:29:39 10° SSE 01:34:42 74° ENE 01:39:46 10° N visible
09 Dec 4.8 13:43:18 10° NNE 13:47:57 36° E 13:52:35 10° SSE visible
10 Dec 3.7 00:53:43 10° SE 00:58:07 31° ENE 01:02:31 10° N visible
10 Dec 5.2 02:32:59 10° SSW 02:37:04 24° W 02:41:10 10° NW visible
10 Dec 6.1 13:08:09 10° ENE 13:10:58 15° E 13:13:45 10° SE visible
11 Dec 3.6 01:55:11 10° S 02:00:11 59° W 02:05:12 10° NNW visible
12 Dec 3.0 01:18:31 10° SSE 01:23:28 56° ENE 01:28:26 10° N visible
12 Dec 6.1 03:00:32 10° WSW 03:02:45 13° W 03:04:59 10° WNW visible
12 Dec 5.3 13:32:18 10° NE 13:36:38 28° E 13:40:55 10° SSE visible
13 Dec 4.8 02:21:16 10° SSW 02:25:44 31° W 02:30:14 10° NW visible
13 Dec 6.4 12:58:14 10° ENE 12:59:35 11° E 13:00:55 10° ESE visible
14 Dec 3.1 01:43:50 10° S 01:48:53 78° WSW 01:53:59 10° NNW visible
14 Dec 4.0 13:57:15 10° NNE 14:02:12 52° E 14:07:08 10° S visible
15 Dec 3.3 01:07:27 10° SE 01:12:14 43° ENE 01:17:01 10° N visible
15 Dec 5.8 02:48:09 10° SW 02:51:23 17° W 02:54:38 10° NW visible
15 Dec 5.7 13:21:26 10° NE 13:25:17 21° E 13:29:06 10° SE visible
16 Dec 4.3 02:09:39 10° SSW 02:14:24 41° W 02:19:12 10° NNW visible
17 Dec 2.9 01:32:33 10° SSE 01:37:37 81° ENE 01:42:42 10° N visible
17 Dec 4.6 13:46:08 10° NNE 13:50:54 40° E 13:55:38 10° SSE visible
